Lid_Strength_Index
1 1 1 1 1 1 2 2 3 6 5 3 2 0 1 0 -1 -0 0 -0 1 1 0 0 1 1 1 1 2 2 3 3 3 3 3 1 -1 0
1 1 1 1 1 1 1 2 2 3 5 3 3 1 0 -0 -1 0 -0 -0 1 1 1 1 1 1 1 1 2 3 4 4 4 5 3 1 1 1
1 1 1 1 1 1 1 1 2 2 4 2 1 1 1 1 1 0 -1 0 0 1 0 1 2 1 1 1 3 5 6 5 6 5 3 1 1 1
1 1 1 1 1 1 1 1 2 2 3 4 3 2 2 2 1 0 0 -0 0 -0 1 1 1 1 2 2 4 6 7 8 7 7 5 2 2 2
1 1 1 1 2 1 1 1 1 1 2 2 3 1 1 1 2 1 1 0 -1 -1 0 1 2 2 3 4 5 8 9 9 9 8 7 3 3 2
0 1 1 1 1 1 1 1 1 2 2 2 2 2 2 1 1 2 3 2 1 -0 -0 2 2 2 3 5 6 8 9 10 10 10 9 5 4 4
1 0 0 0 1 1 1 1 1 2 2 3 3 3 4 3 3 2 2 2 2 2 2 0 1 2 4 6 5 6 8 9 9 10 10 7 5 5
1 1 0 1 1 2 3 3 1 2 2 3 3 3 3 3 2 2 3 3 4 1 2 1 1 1 1 4 5 6 8 9 9 10 11 9 6 6
1 1 1 0 1 0 3 4 4 4 3 2 3 2 2 2 2 2 2 3 3 1 2 2 1 1 0 2 6 6 8 9 9 10 10 10 6 6
1 1 1 1 1 1 1 1 2 2 2 3 3 2 2 2 2 1 1 1 1 1 1 3 1 2 1 4 5 6 7 9 10 10 10 11 7 7
2 1 1 1 3 5 2 2 1 1 3 4 4 5 5 5 3 2 2 3 3 2 2 3 2 3 1 3 6 6 7 9 10 10 10 12 9 6
1 2 4 2 4 5 2 2 2 2 2 1 2 4 5 3 5 3 1 3 3 3 1 2 3 3 3 3 6 7 7 8 11 11 11 12 13 4
1 1 1 7 9 10 9 2 2 2 1 1 1 1 1 1 1 2 2 1 2 3 1 2 3 2 3 3 3 7 7 8 9 10 12 13 13 7
3 2 2 10 11 10 9 8 8 7 3 2 1 2 2 1 1 1 0 0 0 1 0 1 2 2 3 3 3 4 6 7 8 9 9 11 13 11
4 5 8 10 9 7 9 9 9 7 5 4 3 2 1 1 0 1 2 2 0 -0 -0 0 1 1 2 3 3 3 3 5 6 7 8 9 9 8
5 4 6 7 7 6 6 4 2 2 2 3 3 3 2 1 1 1 1 1 2 1 0 -0 0 1 2 2 2 2 2 3 4 5 6 7 7 7
9 6 4 3 2 2 2 1 1 2 4 3 2 2 2 2 2 1 1 2 2 2 2 2 0 0 0 1 3 2 2 2 2 3 5 6 5 7
7 5 5 3 2 2 2 2 1 2 1 3 2 2 2 2 2 2 1 2 3 2 3 2 2 2 3 2 2 2 3 2 2 2 3 5 5 5
6 4 4 3 3 2 2 2 2 1 1 1 2 2 2 2 3 2 2 2 3 2 2 3 3 3 4 5 2 5 2 2 2 3 3 4 4 4
4 3 2 2 2 2 2 2 2 1 1 1 2 2 2 2 2 3 2 3 3 2 2 2 2 3 3 4 4 2 8 1 2 2 3 4 6 7
2 2 2 2 2 2 2 2 2 2 3 1 2 2 2 2 2 4 4 7 5 3 3 3 2 5 2 1 3 3 1 10 4 2 3 3 6 5
3 3 2 3 5 6 6 6 5 3 3 2 2 2 2 2 2 2 2 3 3 2 2 2 2 2 3 3 4 3 3 2 8 7 7 5 3 5
5 6 5 6 6 6 7 7 6 5 4 3 3 2 2 2 2 2 2 2 2 2 2 3 2 2 2 3 4 3 3 3 3 4 4 8 7 6